Location: Recife
(8.0585°S, 34.8848°W)
Time: 12:33:05
(UTC-03:00)

Vanguard 1 - Pass Details

Date: 16 April 2026
Orbit: 654 x 3817 km, 34.3° (Epoch: 11 May)

Event Time Altitude Azimuth Distance (km) Brightness Sun altitude
Rises 21:26:54 0° 266° (W) 6,659 14.7 -62.2°
Reaches altitude 10° 21:32:00 10° 277° (W) 6,049 14.3 -63.4°
Maximum altitude 21:48:05 28° 328° (NNW) 5,393 13.7 -67.4°
Drops below altitude 10° 22:06:21 10° 21° (NNE) 6,713 14.2 -71.9°
Sets 22:12:44 0° 32° (NNE) 7,452 14.5 -73.4°
